• In Hungary
  • List of Countries
  • For 7 days
  • Water Temperature
  • Satellite Maps
  • Weather Map
  • News
  • Weather Widgets
  • user-avatar
    Login

    Hourly Weather Sokoto

    Today, 23 September, Sunday

    Time Temperature Precipitation Wind Pressure Humidity
    00:00 +30°C° 0 mm 4 mps 733 mmHg 63%
    01:00 +30°C° 0 mm 3 mps 733 mmHg 63%
    02:00 +29°C° 0 mm 3 mps 732 mmHg 64%
    03:00 +29°C° 0 mm 3 mps 732 mmHg 65%
    04:00 +29°C° 0 mm 3 mps 732 mmHg 66%
    05:00 +28°C° 0 mm 3 mps 732 mmHg 68%
    06:00 +29°C° 0 mm 3 mps 733 mmHg 67%
    07:00 +30°C° 0 mm 3 mps 733 mmHg 62%
    08:00 +33°C° 0 mm 3 mps 733 mmHg 56%
    09:00 +34°C° 0 mm 3 mps 734 mmHg 50%
    10:00 +36°C° 0 mm 2 mps 733 mmHg 45%
    11:00 +38°C° 0 mm 2 mps 733 mmHg 39%
    12:00 +39°C° 0 mm 1 mps 733 mmHg 34%
    13:00 +40°C° 0 mm 1 mps 732 mmHg 31%
    14:00 +41°C° 0 mm 1 mps 732 mmHg 27%
    15:00 +41°C° 0 mm 2 mps 731 mmHg 24%
    16:00 +40°C° 0 mm 2 mps 731 mmHg 26%
    17:00 +39°C° 0 mm 2 mps 731 mmHg 28%
    18:00 +38°C° 0 mm 3 mps 731 mmHg 30%
    19:00 +37°C° 0 mm 3 mps 731 mmHg 33%
    20:00 +36°C° 0 mm 3 mps 732 mmHg 36%
    21:00 +35°C° 0 mm 4 mps 732 mmHg 39%
    22:00 +34°C° 0 mm 4 mps 732 mmHg 44%
    23:00 +34°C° 0 mm 4 mps 732 mmHg 48%

    Tomorrow, 24 September, Monday

    Time Temperature Precipitation Wind Pressure Humidity
    00:00 +33°C° 0 mm 4 mps 731 mmHg 52%
    01:00 +32°C° 0 mm 4 mps 731 mmHg 55%
    02:00 +32°C° 0 mm 4 mps 731 mmHg 58%
    03:00 +30°C° 0 mm 3 mps 731 mmHg 61%
    04:00 +30°C° 0 mm 3 mps 731 mmHg 63%
    05:00 +29°C° 0 mm 3 mps 732 mmHg 65%
    06:00 +29°C° 0 mm 3 mps 732 mmHg 67%
    07:00 +32°C° 0 mm 4 mps 733 mmHg 62%
    08:00 +33°C° 0 mm 4 mps 733 mmHg 56%
    09:00 +35°C° 0 mm 5 mps 734 mmHg 51%
    10:00 +37°C° 0 mm 4 mps 733 mmHg 46%
    11:00 +38°C° 0 mm 4 mps 733 mmHg 41%
    12:00 +40°C° 0 mm 3 mps 732 mmHg 36%
    13:00 +40°C° 0 mm 2 mps 732 mmHg 33%
    14:00 +41°C° 0 mm 2 mps 731 mmHg 30%
    15:00 +41°C° 0 mm 1 mps 730 mmHg 27%
    16:00 +40°C° 0 mm 1 mps 730 mmHg 29%
    17:00 +39°C° 0 mm 2 mps 730 mmHg 31%
    18:00 +38°C° 0 mm 2 mps 730 mmHg 33%
    19:00 +37°C° 0 mm 2 mps 731 mmHg 37%
    20:00 +36°C° 0 mm 3 mps 731 mmHg 40%
    21:00 +35°C° 0 mm 3 mps 731 mmHg 43%
    22:00 +35°C° 0 mm 3 mps 731 mmHg 46%
    23:00 +34°C° 0 mm 4 mps 731 mmHg 49%

    Day after tomorrow, 25 September, Tuesday

    Time Temperature Precipitation Wind Pressure Humidity
    00:00 +33°C° 0 mm 5 mps 731 mmHg 51%
    01:00 +33°C° 0 mm 5 mps 731 mmHg 57%
    02:00 +32°C° 0 mm 6 mps 731 mmHg 62%
    03:00 +30°C° 0 mm 6 mps 731 mmHg 67%
    04:00 +29°C° 0 mm 6 mps 731 mmHg 70%
    05:00 +29°C° 0 mm 5 mps 732 mmHg 74%
    06:00 +29°C° 0 mm 4 mps 732 mmHg 77%
    07:00 +30°C° 0 mm 5 mps 733 mmHg 70%
    08:00 +33°C° 0 mm 5 mps 734 mmHg 64%
    09:00 +34°C° 0 mm 5 mps 734 mmHg 58%
    10:00 +35°C° 0 mm 5 mps 734 mmHg 54%
    11:00 +37°C° 0 mm 4 mps 733 mmHg 49%
    12:00 +38°C° 0 mm 4 mps 733 mmHg 45%
    13:00 +38°C° 0 mm 4 mps 732 mmHg 42%
    14:00 +38°C° 0 mm 3 mps 731 mmHg 40%
    15:00 +39°C° 0 mm 3 mps 731 mmHg 38%
    16:00 +38°C° 0 mm 3 mps 731 mmHg 42%
    17:00 +37°C° 0 mm 4 mps 731 mmHg 47%
    18:00 +35°C° 0 mm 4 mps 731 mmHg 51%
    19:00 +35°C° 0 mm 4 mps 732 mmHg 54%
    20:00 +34°C° 0 mm 4 mps 732 mmHg 58%
    21:00 +33°C° 0 mm 5 mps 733 mmHg 62%
    22:00 +33°C° 0 mm 4 mps 732 mmHg 63%
    23:00 +32°C° 0 mm 4 mps 732 mmHg 64%

    26 September, Wednesday

    Time Temperature Precipitation Wind Pressure Humidity
    00:00 +32°C° 0 mm 4 mps 732 mmHg 65%
    01:00 +30°C° 0 mm 4 mps 732 mmHg 66%
    02:00 +30°C° 0 mm 4 mps 731 mmHg 68%
    03:00 +29°C° 0 mm 4 mps 731 mmHg 69%
    04:00 +29°C° 0 mm 4 mps 732 mmHg 71%
    05:00 +29°C° 0 mm 4 mps 732 mmHg 73%
    06:00 +28°C° 0 mm 4 mps 733 mmHg 75%
    07:00 +30°C° 0 mm 4 mps 733 mmHg 68%
    08:00 +33°C° 0 mm 4 mps 734 mmHg 62%
    09:00 +34°C° 0 mm 5 mps 734 mmHg 55%
    10:00 +36°C° 0 mm 4 mps 734 mmHg 49%
    11:00 +37°C° 0 mm 4 mps 733 mmHg 44%
    12:00 +39°C° 0 mm 3 mps 732 mmHg 38%
    13:00 +39°C° 0 mm 3 mps 732 mmHg 35%
    14:00 +40°C° 0 mm 2 mps 731 mmHg 32%
    15:00 +41°C° 0 mm 1 mps 730 mmHg 29%
    16:00 +39°C° 0 mm 1 mps 731 mmHg 32%
    17:00 +37°C° 0 mm 1 mps 731 mmHg 35%
    18:00 +36°C° 0 mm 2 mps 731 mmHg 37%
    19:00 +35°C° 0 mm 3 mps 731 mmHg 42%
    20:00 +34°C° 0 mm 4 mps 732 mmHg 47%
    21:00 +33°C° 0 mm 5 mps 732 mmHg 51%
    22:00 +33°C° 0 mm 5 mps 732 mmHg 54%
    23:00 +32°C° 0 mm 5 mps 732 mmHg 56%

    27 September, Thursday

    Time Temperature Precipitation Wind Pressure Humidity
    00:00 +32°C° 0 mm 4 mps 731 mmHg 59%
    01:00 +30°C° 0 mm 5 mps 731 mmHg 61%
    02:00 +30°C° 0 mm 5 mps 731 mmHg 62%
    03:00 +29°C° 0 mm 5 mps 731 mmHg 64%
    04:00 +29°C° 0 mm 5 mps 731 mmHg 66%
    05:00 +29°C° 0 mm 4 mps 732 mmHg 69%
    06:00 +29°C° 0 mm 4 mps 732 mmHg 71%
    07:00 +30°C° 0 mm 5 mps 733 mmHg 64%
    08:00 +33°C° 0 mm 5 mps 733 mmHg 58%
    09:00 +35°C° 0 mm 6 mps 734 mmHg 51%
    10:00 +36°C° 0 mm 5 mps 733 mmHg 46%
    11:00 +39°C° 0 mm 5 mps 732 mmHg 41%
    12:00 +40°C° 0 mm 4 mps 732 mmHg 36%
    13:00 +40°C° 0 mm 3 mps 731 mmHg 34%
    14:00 +40°C° 0 mm 3 mps 730 mmHg 31%
    15:00 +42°C° 0 mm 3 mps 730 mmHg 28%
    16:00 +40°C° 0 mm 2 mps 730 mmHg 30%
    17:00 +38°C° 0 mm 2 mps 730 mmHg 32%
    18:00 +37°C° 0 mm 2 mps 730 mmHg 34%
    19:00 +36°C° 0 mm 2 mps 730 mmHg 36%
    20:00 +36°C° 0 mm 2 mps 731 mmHg 37%
    21:00 +35°C° 0 mm 3 mps 731 mmHg 39%
    22:00 +34°C° 0 mm 4 mps 731 mmHg 43%
    23:00 +34°C° 0 mm 4 mps 731 mmHg 47%

    28 September, Friday

    Time Temperature Precipitation Wind Pressure Humidity
    00:00 +33°C° 0 mm 5 mps 730 mmHg 51%
    01:00 +32°C° 0 mm 6 mps 730 mmHg 57%
    02:00 +32°C° 0 mm 6 mps 730 mmHg 62%
    03:00 +30°C° 0 mm 6 mps 730 mmHg 68%
    04:00 +30°C° 0 mm 6 mps 731 mmHg 70%
    05:00 +29°C° 0 mm 6 mps 731 mmHg 72%
    06:00 +29°C° 0 mm 6 mps 732 mmHg 73%
    07:00 +30°C° 0 mm 6 mps 732 mmHg 70%
    08:00 +32°C° 0 mm 5 mps 733 mmHg 66%
    09:00 +33°C° 0 mm 5 mps 733 mmHg 63%
    10:00 +34°C° 0 mm 5 mps 733 mmHg 59%
    11:00 +34°C° 0 mm 5 mps 732 mmHg 56%
    12:00 +35°C° 0 mm 5 mps 732 mmHg 52%
    13:00 +36°C° 0 mm 4 mps 731 mmHg 50%
    14:00 +37°C° 0 mm 4 mps 731 mmHg 47%
    15:00 +37°C° 0 mm 4 mps 730 mmHg 44%
    16:00 +37°C° 0 mm 4 mps 730 mmHg 47%
    17:00 +36°C° 0 mm 3 mps 731 mmHg 49%
    18:00 +35°C° 0 mm 3 mps 731 mmHg 52%
    19:00 +34°C° 0.1 mm 4 mps 731 mmHg 56%
    20:00 +33°C° 0.1 mm 5 mps 732 mmHg 59%
    21:00 +32°C° 0.1 mm 5 mps 732 mmHg 63%
    22:00 +30°C° 1 mm 5 mps 732 mmHg 67%
    23:00 +30°C° 1 mm 4 mps 732 mmHg 71%
    Show more